This demonstration page uses our WeatherBlox Daily Observations layout. Learn more.

Left ArrowRight Arrow

39.01783, -85.05884

Hourly Observations for February 26, 2021

Temp ( °F °C ) Dew Point ( °F °C ) Humidity (%) Winds ( mph kmh ) Pressure ( in mb ) Visibility ( mi km ) Precip ( " mm )
12:52 am 00:52 Mostly Cloudy 37 2.8 25 -3.9 62 62 E 6 9 30.32 1027 10 16 0.00 0.00
1:52 am 01:52 Mostly Cloudy 37 2.8 25 -3.9 62 62 NE 8 13 30.32 1027 10 16 0.00 0.00
2:52 am 02:52 Mostly Cloudy 36 2.2 25 -3.9 64 64 NE 8 13 30.32 1027 10 16 0.00 0.00
3:52 am 03:52 Partly Cloudy 35 1.7 25 -3.9 67 67 ENE 8 13 30.31 1026 10 16 0.00 0.00
4:52 am 04:52 Clear 32 0 24 -4.4 73 73 E 9 15 30.30 1026 10 16 0.00 0.00
5:52 am 05:52 Mostly Cloudy 32 0 24 -4.4 73 73 ENE 8 13 30.31 1027 10 16 0.00 0.00
6:52 am 06:52 Clear 33 0.6 24 -4.4 70 70 ENE 10 17 30.29 1026 10 16 0.00 0.00
7:52 am 07:52 Cloudy 33 0.6 25 -3.9 72 72 E 13 20 30.27 1025 9 14 0.00 0.00
8:52 am 08:52 Cloudy 34 1.1 25 -3.9 70 70 E 14 22 30.26 1025 9 14 0.00 0.00
9:52 am 09:52 Cloudy 36 2.2 25 -3.9 64 64 E 17 28 30.23 1024 10 16 0.00 0.00
10:52 am 10:52 Cloudy 38 3.3 24 -4.4 57 57 E 15 24 30.22 1023 10 16 0.00 0.00
11:52 am 11:52 Cloudy 39 3.9 24 -4.4 55 55 E 12 19 30.23 1024 10 16 0.00 0.00
12:52 pm 12:52 Cloudy 41 5 24 -4.4 51 51 E 10 17 30.18 1022 10 16 0.00 0.00
1:52 pm 13:52 Mostly Cloudy 44 6.7 24 -4.4 45 45 ENE 10 17 30.14 1021 10 16 0.00 0.00
2:52 pm 14:52 Mostly Cloudy 45 7.2 24 -4.4 44 44 ESE 10 17 30.11 1020 10 16 0.00 0.00
3:52 pm 15:52 Cloudy with Light Rain 44 6.7 26 -3.3 49 49 ESE 12 19 30.09 1019 10 16 0.00 0.00
4:52 pm 16:52 Cloudy 43 6.1 28 -2.2 56 56 SE 14 22 30.07 1018 10 16 0.00 0.00
5:52 pm 17:52 Cloudy with Light Rain 41 5 31 -0.6 67 67 SE 12 19 30.06 1018 10 16 0.00 0.00
6:28 pm 18:28 Cloudy 41 5 33 0.6 73 73 SE 10 17 30.07 1018 10 16 0.00 0.00
6:52 pm 18:52 Cloudy with Light Rain 40 4.4 34 1.1 79 79 SE 8 13 30.04 1017 8 13 0.00 0.00
7:18 pm 19:18 Cloudy with Light Rain 40 4.4 36 2.2 86 86 SE 10 17 30.06 1018 4 6 0.01 0.25
7:26 pm 19:26 Cloudy with Drizzle 40 4.4 36 2.2 86 86 ESE 7 11 30.06 1018 3 4 0.01 0.25
7:52 pm 19:52 Cloudy with Drizzle 40 4.4 37 2.8 89 89 SE 8 13 30.03 1017 2 3 0.01 0.25
8:17 pm 20:17 Cloudy with Mist and Fog 40 4.4 38 3.3 93 93 SE 9 15 30.03 1017 3 5 0.01 0.25
8:41 pm 20:41 Cloudy with Mist and Fog 40 4.4 38 3.3 93 93 SSE 8 13 30.03 1017 3 5 0.01 0.25
8:52 pm 20:52 Cloudy with Mist and Fog 40 4.4 38 3.3 93 93 SE 9 15 29.99 1016 3 5 0.01 0.25
9:13 pm 21:13 Cloudy with Mist and Fog 41 5 38 3.3 89 89 SSE 10 17 30.01 1016 3 5 0.00 0.00
9:34 pm 21:34 Cloudy with Mist and Fog 41 5 39 3.9 93 93 SE 10 17 30.01 1016 3 5 0.00 0.00
9:52 pm 21:52 Cloudy with Drizzle 41 5 39 3.9 93 93 SSE 10 17 29.98 1015 3 5 0.00 0.00
10:52 pm 22:52 Cloudy with Mist and Fog 42 5.6 39 3.9 89 89 SSE 13 20 29.97 1015 3 5 0.01 0.25
11:52 pm 23:52 Cloudy with Mist and Fog 43 6.1 40 4.4 89 89 SSE 10 17 29.96 1015 3 5 0.00 0.00

Powered by AerisWeather